Location: Lafig�re
(44.4503°N, 4.0357°E)
Time: 00:27:35
(UTC+00:00)

Cosmos 2150 Rocket - Pass Details

Date: 26 January 2021
Orbit: 748 x 808 km, 74.0° (Epoch: 06 March)

Event Time Altitude Azimuth Distance (km) Brightness Sun altitude
Exits shadow 03:26:01 11° 25° (NNE) 2,313 6.8 -39.6°
Maximum altitude 03:28:02 13° 48° (NE) 2,176 6.9 -39.2°
Drops below altitude 10° 03:30:20 10° 73° (ENE) 2,364 7.2 -38.8°
Sets 03:34:17 0° 102° (ESE) 3,302 8.1 -38.1°
